When you browse on this site, cookies collect data to enhance your experience and personalize the content and advertising you see.
Visit our Privacy Policy to learn more. By continuing to use the site, you agree to this use of cookies and data.

Meteo orario Starobeshevo

Oggi, 23 Settembre, Mercoledi

Tempo Temperatura Precipitazioni Vento Pressione Umidità
00:00 +15°C° 0 mm 1 m/s 755 mm Hg 30%
01:00 +14°C° 0 mm 1 m/s 755 mm Hg 31%
02:00 +14°C° 0 mm 1 m/s 755 mm Hg 31%
03:00 +14°C° 0 mm 1 m/s 755 mm Hg 32%
04:00 +13°C° 0 mm 1 m/s 755 mm Hg 32%
05:00 +13°C° 0 mm 1 m/s 755 mm Hg 33%
06:00 +13°C° 0 mm 1 m/s 755 mm Hg 33%
07:00 +15°C° 0 mm 2 m/s 755 mm Hg 29%
08:00 +18°C° 0 mm 2 m/s 755 mm Hg 25%
09:00 +20°C° 0 mm 3 m/s 755 mm Hg 21%
10:00 +22°C° 0 mm 3 m/s 755 mm Hg 19%
11:00 +25°C° 0 mm 3 m/s 754 mm Hg 17%
12:00 +27°C° 0 mm 3 m/s 754 mm Hg 14%
13:00 +27°C° 0 mm 3 m/s 754 mm Hg 14%
14:00 +28°C° 0 mm 2 m/s 753 mm Hg 13%
15:00 +29°C° 0 mm 2 m/s 753 mm Hg 12%
16:00 +27°C° 0 mm 2 m/s 753 mm Hg 14%
17:00 +26°C° 0 mm 2 m/s 752 mm Hg 16%
18:00 +25°C° 0 mm 2 m/s 752 mm Hg 18%
19:00 +23°C° 0 mm 2 m/s 752 mm Hg 20%
20:00 +20°C° 0 mm 2 m/s 752 mm Hg 22%
21:00 +19°C° 0 mm 2 m/s 752 mm Hg 24%
22:00 +18°C° 0 mm 2 m/s 752 mm Hg 24%
23:00 +17°C° 0 mm 2 m/s 752 mm Hg 25%

Domani, 24 Settembre, Giovedi

Tempo Temperatura Precipitazioni Vento Pressione Umidità
00:00 +17°C° 0 mm 3 m/s 752 mm Hg 26%
01:00 +16°C° 0 mm 3 m/s 752 mm Hg 29%
02:00 +16°C° 0 mm 3 m/s 752 mm Hg 32%
03:00 +14°C° 0 mm 3 m/s 752 mm Hg 35%
04:00 +15°C° 0 mm 2 m/s 752 mm Hg 36%
05:00 +15°C° 0 mm 2 m/s 752 mm Hg 37%
06:00 +14°C° 0 mm 2 m/s 752 mm Hg 39%
07:00 +16°C° 0 mm 3 m/s 752 mm Hg 37%
08:00 +19°C° 0 mm 3 m/s 752 mm Hg 36%
09:00 +21°C° 0 mm 3 m/s 752 mm Hg 34%
10:00 +23°C° 0 mm 4 m/s 752 mm Hg 32%
11:00 +26°C° 0 mm 4 m/s 752 mm Hg 30%
12:00 +28°C° 0 mm 4 m/s 752 mm Hg 28%
13:00 +29°C° 0 mm 4 m/s 752 mm Hg 26%
14:00 +29°C° 0 mm 5 m/s 751 mm Hg 24%
15:00 +30°C° 0 mm 5 m/s 751 mm Hg 22%
16:00 +28°C° 0 mm 4 m/s 751 mm Hg 25%
17:00 +27°C° 0 mm 3 m/s 751 mm Hg 27%
18:00 +25°C° 0 mm 3 m/s 751 mm Hg 30%
19:00 +24°C° 0 mm 3 m/s 751 mm Hg 32%
20:00 +21°C° 0 mm 3 m/s 751 mm Hg 35%
21:00 +20°C° 0 mm 3 m/s 751 mm Hg 37%
22:00 +19°C° 0 mm 3 m/s 751 mm Hg 39%
23:00 +18°C° 0 mm 3 m/s 751 mm Hg 40%

Dopodomani, 25 Settembre, Venerdi

Tempo Temperatura Precipitazioni Vento Pressione Umidità
00:00 +17°C° 0 mm 3 m/s 751 mm Hg 42%
01:00 +17°C° 0 mm 3 m/s 751 mm Hg 45%
02:00 +16°C° 0 mm 3 m/s 751 mm Hg 48%
03:00 +16°C° 0 mm 3 m/s 751 mm Hg 51%
04:00 +16°C° 0 mm 3 m/s 751 mm Hg 54%
05:00 +14°C° 0 mm 3 m/s 751 mm Hg 56%
06:00 +14°C° 0 mm 3 m/s 751 mm Hg 59%
07:00 +17°C° 0 mm 4 m/s 751 mm Hg 52%
08:00 +19°C° 0 mm 4 m/s 751 mm Hg 45%
09:00 +21°C° 0 mm 5 m/s 751 mm Hg 38%
10:00 +23°C° 0 mm 5 m/s 751 mm Hg 35%
11:00 +26°C° 0 mm 5 m/s 751 mm Hg 32%
12:00 +28°C° 0 mm 6 m/s 750 mm Hg 30%
13:00 +28°C° 0 mm 5 m/s 750 mm Hg 29%
14:00 +29°C° 0 mm 5 m/s 750 mm Hg 28%
15:00 +29°C° 0 mm 5 m/s 749 mm Hg 27%
16:00 +28°C° 0 mm 4 m/s 749 mm Hg 29%
17:00 +27°C° 0 mm 4 m/s 749 mm Hg 30%
18:00 +26°C° 0 mm 3 m/s 749 mm Hg 31%
19:00 +24°C° 0 mm 3 m/s 749 mm Hg 34%
20:00 +22°C° 0 mm 3 m/s 749 mm Hg 36%
21:00 +20°C° 0 mm 4 m/s 749 mm Hg 38%
22:00 +20°C° 0 mm 4 m/s 749 mm Hg 39%
23:00 +19°C° 0 mm 4 m/s 748 mm Hg 40%

26 Settembre, Sabato

Tempo Temperatura Precipitazioni Vento Pressione Umidità
00:00 +19°C° 0 mm 4 m/s 748 mm Hg 40%
01:00 +18°C° 0 mm 4 m/s 748 mm Hg 42%
02:00 +18°C° 0 mm 4 m/s 748 mm Hg 45%
03:00 +17°C° 0 mm 4 m/s 748 mm Hg 47%
04:00 +17°C° 0 mm 4 m/s 748 mm Hg 47%
05:00 +17°C° 0 mm 4 m/s 748 mm Hg 47%
06:00 +17°C° 0 mm 4 m/s 748 mm Hg 47%
07:00 +17°C° 0 mm 5 m/s 748 mm Hg 43%
08:00 +20°C° 0 mm 5 m/s 748 mm Hg 40%
09:00 +21°C° 0 mm 6 m/s 748 mm Hg 36%
10:00 +23°C° 0 mm 6 m/s 748 mm Hg 30%
11:00 +27°C° 0 mm 6 m/s 748 mm Hg 24%
12:00 +29°C° 0 mm 7 m/s 748 mm Hg 19%
13:00 +29°C° 0 mm 7 m/s 748 mm Hg 17%
14:00 +30°C° 0 mm 7 m/s 748 mm Hg 16%
15:00 +32°C° 0 mm 7 m/s 747 mm Hg 14%
16:00 +29°C° 0 mm 7 m/s 747 mm Hg 18%
17:00 +28°C° 0 mm 6 m/s 748 mm Hg 22%
18:00 +27°C° 0 mm 6 m/s 748 mm Hg 26%
19:00 +24°C° 0 mm 6 m/s 748 mm Hg 34%
20:00 +22°C° 0 mm 7 m/s 748 mm Hg 41%
21:00 +20°C° 0 mm 7 m/s 748 mm Hg 48%
22:00 +20°C° 0 mm 7 m/s 748 mm Hg 50%
23:00 +18°C° 0 mm 7 m/s 748 mm Hg 52%

27 Settembre, Domenica

Tempo Temperatura Precipitazioni Vento Pressione Umidità
00:00 +17°C° 0 mm 7 m/s 748 mm Hg 54%
01:00 +17°C° 0 mm 7 m/s 748 mm Hg 54%
02:00 +16°C° 0 mm 7 m/s 748 mm Hg 55%
03:00 +16°C° 0 mm 7 m/s 748 mm Hg 55%
04:00 +15°C° 0 mm 7 m/s 748 mm Hg 55%
05:00 +15°C° 0 mm 7 m/s 748 mm Hg 54%
06:00 +15°C° 0 mm 8 m/s 748 mm Hg 54%
07:00 +16°C° 0 mm 8 m/s 748 mm Hg 51%
08:00 +17°C° 0 mm 9 m/s 748 mm Hg 47%
09:00 +18°C° 0 mm 9 m/s 748 mm Hg 44%
10:00 +21°C° 0 mm 9 m/s 748 mm Hg 41%
11:00 +23°C° 0 mm 9 m/s 748 mm Hg 39%
12:00 +26°C° 0 mm 9 m/s 747 mm Hg 36%
13:00 +27°C° 0 mm 9 m/s 747 mm Hg 34%
14:00 +28°C° 0 mm 9 m/s 747 mm Hg 32%
15:00 +29°C° 0 mm 9 m/s 747 mm Hg 30%
16:00 +29°C° 0.1 mm 8 m/s 747 mm Hg 31%
17:00 +28°C° 0.1 mm 7 m/s 747 mm Hg 33%
18:00 +27°C° 0.1 mm 6 m/s 747 mm Hg 34%
19:00 +26°C° 0.1 mm 7 m/s 747 mm Hg 36%
20:00 +24°C° 0.1 mm 8 m/s 747 mm Hg 37%
21:00 +23°C° 0.1 mm 8 m/s 747 mm Hg 39%
22:00 +23°C° 0.1 mm 8 m/s 748 mm Hg 42%
23:00 +22°C° 0.1 mm 7 m/s 748 mm Hg 46%

28 Settembre, Lunedi

Tempo Temperatura Precipitazioni Vento Pressione Umidità
00:00 +21°C° 0.1 mm 7 m/s 748 mm Hg 50%
01:00 +20°C° 0.4 mm 6 m/s 749 mm Hg 54%
02:00 +19°C° 0.4 mm 5 m/s 749 mm Hg 58%
03:00 +19°C° 0.4 mm 5 m/s 749 mm Hg 62%
04:00 +18°C° 0 mm 4 m/s 750 mm Hg 65%
05:00 +18°C° 0 mm 3 m/s 750 mm Hg 69%
06:00 +17°C° 0 mm 2 m/s 751 mm Hg 72%
07:00 +18°C° 0 mm 2 m/s 751 mm Hg 69%
08:00 +19°C° 0 mm 2 m/s 751 mm Hg 67%
09:00 +20°C° 0 mm 2 m/s 752 mm Hg 64%
10:00 +22°C° 0 mm 3 m/s 752 mm Hg 53%
11:00 +24°C° 0 mm 3 m/s 753 mm Hg 43%
12:00 +26°C° 0 mm 3 m/s 753 mm Hg 33%
13:00 +26°C° 0 mm 3 m/s 753 mm Hg 30%
14:00 +27°C° 0 mm 3 m/s 753 mm Hg 27%
15:00 +27°C° 0 mm 2 m/s 753 mm Hg 23%
16:00 +26°C° 0 mm 2 m/s 753 mm Hg 27%
17:00 +25°C° 0 mm 2 m/s 753 mm Hg 31%
18:00 +23°C° 0 mm 2 m/s 753 mm Hg 34%
19:00 +22°C° 0 mm 1 m/s 753 mm Hg 40%
20:00 +21°C° 0 mm 1 m/s 753 mm Hg 45%
21:00 +17°C° 0 mm 0 m/s 753 mm Hg 50%
22:00 +19°C° 0 mm 1 m/s 752 mm Hg 50%
23:00 +18°C° 0 mm 2 m/s 752 mm Hg 50%
Mostrare altro